Location: Ffm
(50.0000°N, 8.5000°E)
Time: 10:35:09
(UTC+01:00)

Envisat - Pass Details

Date: 27 October 2020
Orbit: 764 x 766 km, 98.1° (Epoch: 03 December)

Event Time Altitude Azimuth Distance (km) Brightness Sun altitude
Rises 17:36:25 0° 171° (S) 3,220 6.3 -4.7°
Reaches altitude 10° 17:38:43 10° 174° (S) 2,298 5.6 -5.1°
Maximum altitude 17:43:46 68° 258° (WSW) 826 3.5 -5.9°
Drops below altitude 10° 17:48:52 10° 341° (NNW) 2,315 5.6 -6.7°
Sets 17:51:12 0° 345° (NNW) 3,245 6.3 -7.1°
